QPF
0.00 0.00 0.00 0.00 0.00 0.00 0.00 0.00 0.00 0.00 0.00 0.00 0.00 0.00 0.00 0.00 0.00 0.00 0.00 0.00 0.00 0.00 0.00 0.00 0.00 0.00 0.00 0.00 0.00 0.00 0.00 0.00 0.00 0.00 0.00 0.00 0.01 0.01 0.01 0.01 0.00 0.00 0.00
0.00 0.00 0.00 0.00 0.00 0.00 0.00 0.00 0.00 0.00 0.00 0.00 0.00 0.00 0.00 0.00 0.00 0.00 0.00 0.00 0.00 0.00 0.00 0.00 0.00 0.00 0.00 0.00 0.00 0.00 0.00 0.00 0.00 0.00 0.00 0.00 0.00 0.01 0.01 0.02 0.01 0.00 0.00
0.00 0.00 0.00 0.00 0.00 0.00 0.00 0.00 0.00 0.00 0.00 0.00 0.00 0.00 0.00 0.00 0.00 0.00 0.00 0.00 0.00 0.00 0.00 0.00 0.00 0.00 0.00 0.00 0.00 0.00 0.00 0.00 0.00 0.00 0.00 0.00 0.00 0.00 0.00 0.01 0.01 0.00 0.00
0.00 0.00 0.00 0.00 0.00 0.00 0.00 0.00 0.00 0.00 0.00 0.00 0.00 0.00 0.00 0.00 0.00 0.00 0.00 0.00 0.00 0.00 0.00 0.00 0.00 0.00 0.00 0.00 0.00 0.00 0.00 0.00 0.00 0.00 0.00 0.01 0.00 0.00 0.00 0.01 0.02 0.00 0.00
0.00 0.00 0.00 0.00 0.00 0.00 0.00 0.00 0.00 0.00 0.00 0.00 0.00 0.00 0.00 0.00 0.00 0.00 0.00 0.00 0.00 0.00 0.00 0.00 0.00 0.00 0.00 0.00 0.00 0.00 0.00 0.00 0.00 0.00 0.00 0.00 0.00 0.00 0.00 0.01 0.01 0.00 0.00
0.00 0.00 0.00 0.00 0.00 0.00 0.00 0.00 0.00 0.00 0.00 0.00 0.00 0.00 0.00 0.00 0.00 0.00 0.00 0.00 0.00 0.00 0.00 0.00 0.00 0.00 0.00 0.00 0.00 0.00 0.00 0.00 0.00 0.00 0.00 0.00 0.00 0.00 0.00 0.00 0.00 0.00 0.00
0.00 0.00 0.00 0.00 0.00 0.00 0.00 0.00 0.00 0.00 0.00 0.00 0.00 0.00 0.00 0.00 0.00 0.00 0.00 0.00 0.00 0.00 0.00 0.00 0.00 0.00 0.00 0.00 0.00 0.00 0.00 0.00 0.00 0.00 0.00 0.00 0.00 0.00 0.00 0.00 0.00 0.00 0.00
0.00 0.00 0.00 0.00 0.00 0.00 0.00 0.00 0.00 0.00 0.00 0.00 0.00 0.00 0.00 0.00 0.00 0.00 0.00 0.00 0.00 0.00 0.00 0.00 0.00 0.00 0.00 0.00 0.00 0.00 0.00 0.00 0.00 0.00 0.00 0.01 0.01 0.00 0.00 0.00 0.01 0.01 0.02
0.00 0.00 0.00 0.00 0.00 0.00 0.00 0.00 0.00 0.00 0.00 0.00 0.00 0.00 0.00 0.00 0.00 0.00 0.00 0.00 0.00 0.00 0.00 0.00 0.00 0.00 0.00 0.00 0.00 0.00 0.00 0.00 0.00 0.00 0.00 0.00 0.00 0.01 0.01 0.01 0.02 0.02 0.02
0.00 0.00 0.00 0.00 0.00 0.00 0.00 0.00 0.00 0.00 0.00 0.00 0.00 0.00 0.00 0.00 0.00 0.00 0.00 0.00 0.00 0.00 0.00 0.00 0.00 0.00 0.00 0.00 0.00 0.00 0.00 0.00 0.00 0.00 0.00 0.00 0.00 0.00 0.01 0.02 0.03 0.03 0.02
0.00 0.00 0.00 0.00 0.00 0.00 0.00 0.00 0.00 0.00 0.00 0.00 0.00 0.00 0.00 0.00 0.00 0.00 0.00 0.00 0.00 0.00 0.00 0.00 0.00 0.00 0.00 0.00 0.00 0.00 0.00 0.00 0.00 0.00 0.00 0.00 0.00 0.00 0.01 0.01 0.03 0.03 0.02
0.00 0.00 0.00 0.00 0.00 0.00 0.00 0.00 0.00 0.00 0.00 0.00 0.00 0.00 0.00 0.00 0.00 0.00 0.00 0.00 0.00 0.00 0.00 0.00 0.00 0.00 0.00 0.00 0.00 0.00 0.00 0.00 0.00 0.00 0.00 0.00 0.00 0.00 0.00 0.00 0.00 0.00 0.00
0.00 0.00 0.00 0.00 0.00 0.00 0.00 0.00 0.00 0.00 0.00 0.00 0.00 0.00 0.00 0.00 0.00 0.00 0.00 0.00 0.00 0.00 0.00 0.00 0.00 0.00 0.00 0.00 0.00 0.00 0.00 0.00 0.00 0.00 0.00 0.00 0.00 0.00 0.00 0.00 0.00 0.00 0.00
0.00 0.00 0.00 0.00 0.00 0.00 0.00 0.00 0.00 0.00 0.00 0.00 0.00 0.00 0.00 0.00 0.00 0.00 0.00 0.00 0.00 0.00 0.00 0.00 0.00 0.00 0.00 0.00 0.00 0.00 0.00 0.00 0.00 0.00 0.00 0.00 0.00 0.00 0.00 0.00 0.00 0.00 0.00
0.00 0.00 0.00 0.00 0.00 0.00 0.00 0.00 0.00 0.00 0.00 0.00 0.00 0.00 0.00 0.00 0.00 0.00 0.00 0.00 0.00 0.00 0.00 0.00 0.00 0.00 0.00 0.00 0.00 0.00 0.00 0.00 0.00 0.00 0.00 0.00 0.00 0.00 0.00 0.00 0.00 0.00 0.00
0.00 0.00 0.00 0.00 0.00 0.00 0.00 0.00 0.00 0.00 0.00 0.00 0.00 0.00 0.00 0.00 0.00 0.00 0.00 0.00 0.00 0.00 0.00 0.00 0.00 0.00 0.00 0.00 0.00 0.00 0.00 0.00 0.00 0.00 0.00 0.00 0.00 0.00 0.00 0.00 0.00 0.00 0.00
0.00 0.00 0.00 0.00 0.00 0.00 0.00 0.00 0.00 0.00 0.00 0.00 0.00 0.00 0.00 0.00 0.00 0.00 0.00 0.00 0.00 0.00 0.00 0.00 0.00 0.00 0.00 0.00 0.00 0.00 0.00 0.00 0.00 0.00 0.00 0.00 0.00 0.00 0.00 0.00 0.00 0.00 0.00
0.00 0.00 0.00 0.00 0.00 0.00 0.00 0.00 0.00 0.00 0.00 0.00 0.00 0.00 0.00 0.00 0.00 0.00 0.00 0.00 0.00 0.00 0.00 0.00 0.00 0.00 0.00 0.00 0.00 0.00 0.00 0.00 0.00 0.00 0.00 0.00 0.00 0.00 0.00 0.00 0.00 0.00 0.00
0.00 0.00 0.00 0.00 0.00 0.00 0.00 0.00 0.00 0.00 0.00 0.00 0.00 0.00 0.00 0.00 0.00 0.00 0.00 0.00 0.00 0.00 0.00 0.00 0.00 0.00 0.00 0.00 0.00 0.00 0.00 0.00 0.00 0.00 0.00 0.00 0.00 0.00 0.00 0.00 0.00 0.00 0.00
0.00 0.00 0.00 0.00 0.00 0.00 0.00 0.00 0.00 0.00 0.00 0.00 0.00 0.00 0.00 0.00 0.00 0.00 0.00 0.00 0.00 0.00 0.00 0.00 0.00 0.00 0.00 0.00 0.00 0.00 0.00 0.00 0.00 0.00 0.00 0.00 0.00 0.00 0.00 0.00 0.00 0.00 0.00
0.00 0.00 0.00 0.00 0.00 0.00 0.00 0.00 0.00 0.00 0.00 0.00 0.00 0.00 0.00 0.00 0.00 0.00 0.00 0.00 0.00 0.00 0.00 0.00 0.00 0.00 0.00 0.00 0.00 0.00 0.00 0.00 0.00 0.00 0.00 0.00 0.00 0.00 0.00 0.00 0.00 0.00 0.00
0.00 0.00 0.00 0.00 0.00 0.00 0.00 0.00 0.00 0.00 0.00 0.00 0.00 0.00 0.00 0.00 0.00 0.00 0.00 0.00 0.00 0.00 0.00 0.00 0.00 0.00 0.00 0.00 0.00 0.00 0.00 0.00 0.00 0.00 0.00 0.00 0.00 0.00 0.00 0.00 0.00 0.00 0.00
0.00 0.00 0.00 0.00 0.00 0.00 0.00 0.00 0.00 0.00 0.00 0.00 0.00 0.00 0.00 0.00 0.00 0.00 0.00 0.00 0.00 0.00 0.00 0.00 0.00 0.00 0.00 0.00 0.00 0.00 0.00 0.00 0.00 0.00 0.00 0.00 0.00 0.00 0.00 0.00 0.00 0.00 0.00
0.00 0.00 0.00 0.00 0.00 0.00 0.00 0.00 0.00 0.00 0.00 0.00 0.00 0.00 0.00 0.00 0.00 0.00 0.00 0.00 0.00 0.00 0.00 0.00 0.00 0.00 0.00 0.00 0.00 0.00 0.00 0.00 0.00 0.00 0.00 0.00 0.00 0.00 0.00 0.00 0.00 0.00 0.00
0.00 0.00 0.00 0.00 0.00 0.00 0.00 0.00 0.00 0.00 0.00 0.00 0.00 0.00 0.00 0.00 0.00 0.00 0.00 0.00 0.00 0.00 0.00 0.00 0.00 0.00 0.00 0.00 0.02 0.01 0.00 0.00 0.00 0.00 0.00 0.01 0.00 0.00 0.00 0.00 0.00 0.00 0.00
0.00 0.00 0.00 0.00 0.00 0.00 0.00 0.00 0.00 0.00 0.00 0.00 0.00 0.00 0.00 0.00 0.00 0.00 0.00 0.00 0.00 0.00 0.00 0.00 0.00 0.00 0.00 0.00 0.00 0.00 0.00 0.00 0.00 0.01 0.00 0.00 0.00 0.00 0.00 0.00 0.00 0.00 0.00
MSLP
1018.81 1019.00 1019.02 1019.02 1019.18 1019.12 1019.18 1019.32 1019.33 1019.45 1019.41 1019.45 1019.53 1019.65 1019.81 1019.96 1020.08 1020.14 1020.08 1019.84 1019.83 1019.78 1019.70 1019.62 1019.53 1019.34 1019.25 1019.04 1018.85 1018.67 1018.49 1018.36 1018.17 1017.82 1017.60 1017.43 1017.23 1017.02 1016.74 1016.51 1016.35 1016.28 1016.05
1018.70 1019.00 1019.07 1019.21 1019.36 1019.31 1019.40 1019.50 1019.58 1019.65 1019.77 1019.73 1019.88 1019.90 1020.00 1020.09 1020.24 1020.33 1020.35 1020.29 1020.12 1020.12 1019.97 1019.87 1019.70 1019.56 1019.44 1019.21 1019.03 1018.86 1018.67 1018.48 1018.40 1018.15 1017.85 1017.62 1017.38 1017.18 1016.92 1016.71 1016.44 1016.38 1016.21
1018.70 1019.00 1019.11 1019.24 1019.47 1019.53 1019.48 1019.68 1019.86 1019.90 1019.99 1019.87 1020.14 1020.14 1020.26 1020.30 1020.39 1020.48 1020.51 1020.54 1020.49 1020.41 1020.21 1020.07 1019.94 1019.77 1019.66 1019.43 1019.11 1018.87 1018.74 1018.60 1018.53 1018.37 1018.03 1017.82 1017.62 1017.27 1017.05 1016.81 1016.49 1016.38 1016.29
1018.61 1018.97 1019.13 1019.25 1019.51 1019.65 1019.79 1020.00 1020.24 1020.44 1020.48 1020.42 1020.47 1020.53 1020.51 1020.54 1020.65 1020.73 1020.76 1020.72 1020.66 1020.69 1020.70 1020.49 1020.25 1020.07 1019.85 1019.60 1019.26 1018.87 1018.76 1018.73 1018.60 1018.46 1018.22 1017.93 1017.69 1017.45 1017.16 1016.89 1016.60 1016.37 1016.30
1018.49 1018.84 1019.15 1019.44 1019.56 1019.89 1020.07 1020.16 1020.51 1020.60 1020.88 1020.81 1020.67 1020.69 1020.87 1020.95 1021.08 1020.97 1021.17 1021.28 1021.23 1021.10 1021.08 1020.86 1020.75 1020.46 1020.21 1019.91 1019.53 1019.12 1018.88 1018.78 1018.60 1018.42 1018.27 1017.87 1017.68 1017.53 1017.29 1017.01 1016.58 1016.39 1016.29
1018.41 1018.75 1019.05 1019.23 1019.40 1019.79 1020.21 1020.50 1020.68 1020.81 1021.02 1021.05 1020.97 1021.12 1021.29 1021.21 1021.21 1021.39 1021.50 1021.34 1021.45 1021.55 1021.44 1021.22 1021.04 1020.83 1020.44 1020.24 1019.86 1019.48 1019.10 1018.89 1018.73 1018.45 1018.34 1018.12 1017.72 1017.48 1017.13 1017.02 1016.71 1016.34 1016.04
1018.39 1018.81 1019.25 1019.35 1019.58 1019.78 1020.16 1020.20 1020.78 1021.10 1021.12 1020.93 1021.14 1021.60 1021.62 1021.52 1021.65 1021.75 1021.85 1021.96 1021.72 1021.63 1021.59 1021.57 1021.54 1021.19 1020.82 1020.38 1020.08 1019.70 1019.50 1019.14 1018.78 1018.54 1018.35 1018.13 1017.88 1017.47 1017.10 1016.81 1016.61 1016.31 1016.09
1018.45 1018.69 1019.11 1019.50 1019.58 1019.95 1020.39 1020.70 1020.48 1021.24 1021.64 1021.31 1021.76 1022.29 1022.39 1022.24 1022.01 1022.18 1022.30 1022.23 1022.34 1022.01 1021.86 1021.79 1021.64 1021.44 1021.27 1020.96 1020.50 1020.15 1019.89 1019.61 1019.09 1018.52 1018.11 1017.93 1017.51 1017.39 1017.01 1016.58 1016.30 1015.98 1015.81
1018.71 1018.99 1019.31 1019.66 1019.95 1020.21 1020.52 1020.81 1020.99 1020.97 1021.83 1021.96 1021.66 1022.03 1022.77 1023.12 1022.99 1022.28 1022.51 1022.48 1022.38 1022.20 1021.98 1021.98 1021.83 1021.67 1021.55 1021.38 1020.92 1020.56 1020.07 1019.75 1019.27 1018.61 1018.08 1017.69 1017.47 1017.07 1016.77 1016.28 1015.99 1015.68 1015.52
1018.88 1019.14 1019.49 1019.83 1020.02 1020.21 1020.96 1020.98 1021.54 1021.31 1021.98 1022.39 1022.22 1022.25 1022.59 1022.89 1023.21 1023.21 1022.65 1022.56 1022.33 1022.31 1022.38 1022.09 1022.08 1021.88 1021.55 1021.53 1021.24 1020.85 1020.29 1019.94 1019.47 1018.94 1018.41 1017.83 1017.26 1016.79 1016.52 1016.26 1015.84 1015.57 1015.47
1019.00 1019.36 1019.58 1019.97 1020.36 1019.85 1021.20 1021.54 1021.75 1021.54 1022.22 1022.77 1022.70 1022.95 1023.15 1023.25 1023.30 1023.65 1023.51 1023.10 1022.69 1022.49 1022.26 1022.11 1021.99 1021.88 1021.59 1021.49 1021.34 1021.07 1020.54 1020.07 1019.62 1019.15 1018.63 1017.98 1017.35 1016.83 1016.44 1016.14 1015.81 1015.51 1015.24
1019.38 1019.76 1019.84 1020.24 1020.50 1020.45 1021.20 1021.53 1021.74 1022.07 1022.73 1022.86 1023.21 1023.26 1023.42 1023.78 1023.93 1023.77 1023.92 1023.59 1023.38 1022.95 1022.64 1022.42 1022.02 1021.92 1021.79 1021.52 1021.22 1021.02 1020.66 1020.25 1019.73 1019.40 1018.88 1018.08 1017.51 1017.15 1016.82 1016.42 1015.98 1015.66 1015.27
1019.83 1020.16 1020.53 1020.39 1020.52 1020.87 1021.08 1021.54 1022.20 1022.70 1022.87 1023.35 1023.58 1023.66 1023.69 1023.79 1023.78 1023.83 1024.05 1024.14 1023.85 1023.11 1022.75 1022.28 1022.14 1022.20 1021.90 1021.79 1021.50 1020.99 1020.65 1020.28 1019.89 1019.21 1018.79 1018.33 1017.86 1017.66 1017.47 1016.75 1016.22 1015.83 1015.40
1019.66 1020.90 1020.36 1020.25 1020.98 1021.34 1021.90 1022.08 1022.39 1022.80 1023.22 1023.82 1023.82 1023.96 1024.04 1024.06 1023.97 1024.14 1024.27 1024.64 1024.34 1023.78 1023.31 1022.98 1022.10 1022.05 1021.85 1021.79 1021.39 1021.11 1020.74 1020.32 1019.89 1019.37 1018.89 1018.61 1018.20 1017.85 1017.27 1016.87 1016.28 1015.76 1015.37
1019.47 1020.81 1020.53 1020.90 1021.56 1021.88 1022.16 1022.52 1022.94 1023.40 1023.63 1023.87 1023.97 1024.12 1024.33 1024.48 1024.35 1024.25 1024.45 1024.61 1024.70 1024.43 1023.75 1023.09 1022.95 1022.37 1022.20 1021.59 1021.18 1020.89 1020.88 1020.44 1019.72 1019.34 1018.91 1018.67 1018.23 1017.63 1017.15 1016.56 1016.04 1015.65 1015.01
1019.88 1020.60 1020.87 1021.17 1021.89 1022.40 1022.72 1022.88 1023.35 1023.62 1023.90 1023.98 1024.15 1024.25 1024.43 1024.64 1024.62 1024.35 1024.31 1024.45 1024.50 1024.49 1024.14 1023.21 1022.90 1022.50 1022.16 1021.68 1021.33 1020.98 1020.62 1020.22 1019.69 1019.31 1018.84 1018.44 1017.98 1017.49 1016.91 1016.45 1015.97 1015.38 1014.85
1019.14 1020.09 1021.32 1022.03 1022.42 1022.70 1022.90 1023.38 1023.60 1023.82 1024.04 1024.03 1024.22 1024.28 1024.47 1024.64 1024.53 1024.34 1024.25 1024.19 1024.20 1024.16 1023.82 1023.03 1022.61 1022.24 1022.14 1021.67 1021.36 1021.07 1020.55 1020.13 1019.49 1019.00 1018.74 1018.26 1017.80 1017.29 1016.77 1016.20 1015.71 1015.26 1014.76
1019.36 1020.22 1021.57 1022.31 1022.70 1022.93 1023.21 1023.60 1023.69 1023.70 1023.82 1023.90 1024.15 1024.30 1024.39 1024.52 1024.26 1024.17 1024.11 1024.04 1023.89 1023.62 1023.56 1022.93 1022.62 1022.32 1022.02 1021.43 1021.13 1020.99 1020.28 1019.80 1019.53 1019.08 1018.40 1017.81 1017.38 1016.91 1016.41 1015.90 1015.51 1015.06 1014.58
1020.80 1021.40 1021.72 1022.32 1022.55 1023.05 1023.46 1023.61 1023.45 1023.56 1023.75 1023.73 1024.06 1024.11 1024.30 1024.33 1024.08 1023.92 1023.83 1023.68 1023.46 1023.10 1023.02 1022.86 1022.53 1022.08 1021.68 1021.22 1020.83 1020.60 1020.24 1019.76 1019.34 1018.70 1018.13 1017.52 1016.83 1016.38 1015.98 1015.60 1015.17 1014.61 1014.14
1021.37 1021.51 1021.89 1022.17 1022.81 1023.16 1023.33 1023.38 1023.42 1023.40 1023.65 1023.65 1023.70 1023.96 1024.03 1023.78 1023.61 1023.37 1023.22 1023.08 1022.81 1022.84 1022.64 1022.38 1022.12 1021.81 1021.51 1020.95 1020.76 1020.61 1020.06 1019.56 1019.10 1018.45 1017.86 1017.16 1016.55 1016.09 1015.55 1015.15 1014.71 1014.28 1013.85
1021.25 1021.45 1021.83 1022.60 1023.27 1023.12 1022.97 1023.13 1023.28 1023.39 1023.38 1023.46 1023.41 1023.41 1023.37 1023.13 1022.77 1022.51 1022.23 1022.30 1022.20 1022.19 1022.01 1021.90 1021.80 1021.52 1021.20 1020.82 1020.61 1020.21 1019.92 1019.37 1018.79 1018.32 1017.64 1017.09 1016.60 1015.99 1015.36 1014.78 1014.36 1013.85 1013.27
1021.49 1021.98 1022.40 1022.73 1022.92 1022.93 1022.98 1022.97 1022.99 1022.95 1022.97 1023.09 1023.31 1023.09 1022.94 1022.61 1022.28 1021.67 1021.44 1021.19 1021.55 1021.37 1021.43 1021.34 1021.30 1021.14 1020.76 1020.39 1020.17 1019.98 1019.63 1019.11 1018.31 1017.87 1017.69 1016.64 1016.43 1015.88 1015.24 1014.68 1014.02 1013.37 1012.88
1021.79 1022.26 1022.52 1022.80 1022.98 1022.91 1022.86 1022.71 1022.47 1022.39 1022.79 1022.84 1023.03 1022.87 1022.59 1022.00 1021.63 1021.28 1021.09 1020.76 1020.87 1020.72 1020.61 1020.49 1020.57 1020.48 1020.12 1019.82 1019.58 1019.32 1019.03 1018.75 1018.23 1017.56 1017.21 1016.06 1016.01 1015.54 1014.81 1014.18 1013.68 1013.06 1012.36
1021.90 1022.34 1022.74 1022.99 1022.82 1022.63 1022.65 1022.56 1022.24 1022.18 1022.40 1022.54 1022.56 1022.44 1022.12 1021.68 1021.20 1020.76 1020.76 1020.47 1020.16 1019.95 1019.71 1019.67 1019.60 1019.46 1019.24 1018.95 1019.01 1018.55 1018.22 1018.10 1017.55 1016.94 1016.60 1015.92 1015.56 1015.16 1014.52 1013.87 1013.09 1012.45 1011.84
1022.08 1022.37 1022.70 1022.79 1022.79 1022.72 1022.58 1022.33 1021.71 1021.92 1022.12 1022.22 1022.20 1021.91 1021.50 1021.28 1020.90 1020.35 1020.07 1019.92 1019.55 1019.18 1018.73 1018.60 1018.45 1018.18 1017.93 1017.74 1017.57 1017.74 1017.91 1017.92 1017.29 1016.69 1016.07 1015.95 1015.37 1014.96 1014.27 1013.42 1012.69 1012.25 1011.73
1022.22 1022.51 1022.69 1022.77 1022.73 1022.79 1022.30 1021.87 1021.63 1021.83 1022.15 1022.13 1021.67 1021.49 1021.11 1020.73 1020.20 1019.84 1019.46 1019.27 1018.96 1018.49 1018.24 1018.06 1017.97 1017.79 1017.46 1017.39 1017.15 1017.29 1017.37 1017.49 1017.20 1016.40 1015.95 1016.05 1015.49 1015.35 1013.94 1012.91 1012.50 1011.96 1011.41
Thickness
5686 5685 5686 5687 5686 5686 5685 5684 5683 5682 5681 5679 5676 5674 5671 5668 5666 5664 5662 5661 5659 5657 5655 5654 5652 5651 5650 5649 5648 5647 5646 5644 5643 5644 5644 5642 5641 5639 5637 5636 5633 5630 5628
5682 5680 5682 5682 5681 5681 5680 5678 5677 5677 5675 5674 5671 5668 5666 5663 5660 5657 5656 5654 5653 5650 5649 5648 5647 5645 5644 5644 5643 5641 5640 5639 5637 5637 5638 5637 5636 5635 5633 5632 5631 5627 5624
5677 5676 5677 5677 5675 5674 5675 5673 5671 5669 5668 5668 5665 5663 5659 5657 5654 5651 5649 5647 5646 5644 5643 5641 5640 5639 5638 5637 5637 5636 5635 5633 5632 5630 5631 5631 5631 5630 5628 5627 5627 5625 5622
5672 5671 5671 5672 5669 5668 5667 5665 5663 5661 5659 5658 5656 5655 5653 5650 5647 5644 5642 5640 5640 5637 5635 5633 5633 5631 5631 5631 5631 5631 5630 5627 5626 5624 5624 5625 5625 5625 5624 5623 5623 5622 5619
5668 5667 5666 5664 5663 5661 5659 5658 5655 5654 5650 5650 5650 5648 5645 5642 5638 5636 5632 5629 5628 5627 5626 5624 5623 5624 5623 5622 5622 5623 5623 5621 5620 5619 5618 5619 5619 5619 5618 5617 5618 5618 5616
5662 5661 5661 5660 5659 5656 5652 5649 5647 5646 5643 5641 5641 5638 5635 5634 5632 5628 5625 5624 5620 5617 5616 5616 5616 5616 5615 5614 5614 5615 5615 5614 5612 5612 5611 5610 5612 5612 5613 5611 5612 5613 5612
5655 5655 5653 5652 5650 5648 5644 5645 5639 5636 5634 5634 5632 5627 5624 5624 5621 5619 5615 5613 5613 5612 5609 5607 5605 5606 5606 5606 5605 5605 5604 5604 5605 5603 5602 5602 5602 5604 5605 5606 5605 5606 5606
5650 5650 5647 5644 5642 5639 5634 5630 5631 5625 5621 5622 5618 5611 5607 5611 5610 5607 5604 5603 5600 5600 5599 5596 5595 5595 5594 5594 5595 5595 5594 5593 5594 5596 5597 5596 5597 5595 5597 5600 5601 5602 5601
5639 5639 5637 5633 5630 5626 5622 5619 5618 5618 5609 5607 5608 5605 5596 5594 5589 5597 5594 5592 5591 5590 5590 5587 5585 5584 5582 5581 5583 5583 5583 5583 5583 5586 5588 5588 5588 5590 5590 5592 5593 5595 5596
5628 5628 5625 5622 5619 5615 5608 5606 5602 5605 5598 5594 5594 5593 5588 5585 5582 5580 5584 5583 5582 5580 5576 5576 5573 5573 5573 5570 5569 5570 5571 5570 5571 5573 5576 5578 5580 5582 5582 5582 5585 5586 5587
5618 5615 5613 5609 5605 5608 5597 5593 5589 5592 5586 5580 5580 5578 5575 5573 5573 5570 5568 5567 5569 5567 5566 5564 5564 5561 5561 5559 5557 5556 5557 5558 5558 5559 5560 5563 5567 5571 5572 5573 5574 5576 5578
5605 5602 5601 5596 5594 5594 5587 5585 5582 5580 5573 5571 5567 5567 5565 5562 5560 5560 5555 5555 5553 5554 5552 5550 5550 5549 5546 5546 5545 5543 5543 5543 5545 5543 5545 5550 5553 5556 5558 5559 5562 5564 5567
5590 5588 5586 5587 5586 5583 5581 5577 5572 5568 5567 5560 5556 5555 5554 5551 5549 5547 5543 5540 5540 5543 5540 5539 5536 5533 5531 5529 5528 5528 5528 5529 5529 5532 5532 5535 5538 5538 5538 5545 5548 5550 5554
5581 5570 5578 5580 5574 5571 5567 5566 5564 5559 5555 5547 5547 5543 5541 5538 5537 5533 5530 5523 5523 5526 5525 5522 5521 5516 5515 5512 5512 5511 5512 5512 5514 5516 5517 5517 5519 5521 5524 5527 5531 5536 5539
5569 5560 5567 5567 5562 5560 5557 5554 5551 5545 5542 5539 5537 5532 5526 5522 5521 5519 5513 5509 5506 5504 5509 5508 5503 5503 5499 5498 5495 5496 5494 5495 5498 5499 5500 5499 5502 5506 5508 5511 5516 5519 5524
5562 5557 5557 5556 5552 5548 5545 5543 5538 5534 5529 5527 5523 5518 5513 5507 5503 5502 5498 5493 5489 5485 5485 5491 5488 5486 5484 5482 5480 5480 5479 5478 5480 5480 5482 5483 5484 5486 5490 5493 5497 5500 5505
5562 5554 5545 5540 5537 5535 5532 5528 5525 5520 5516 5513 5508 5503 5499 5493 5488 5486 5483 5479 5474 5470 5471 5474 5471 5468 5465 5464 5462 5460 5461 5461 5462 5461 5460 5461 5463 5465 5467 5471 5474 5477 5482
5553 5545 5532 5525 5522 5521 5519 5513 5511 5509 5505 5500 5494 5489 5484 5480 5477 5472 5468 5462 5458 5454 5452 5456 5451 5447 5443 5444 5442 5439 5439 5440 5438 5438 5439 5439 5440 5442 5445 5447 5448 5451 5454
5525 5521 5519 5514 5513 5508 5502 5500 5500 5495 5490 5487 5480 5476 5470 5465 5462 5456 5450 5446 5442 5441 5435 5432 5431 5427 5425 5423 5422 5420 5419 5418 5416 5416 5415 5416 5417 5418 5419 5420 5422 5426 5429
5510 5511 5508 5506 5498 5493 5489 5487 5485 5483 5477 5473 5468 5461 5455 5451 5446 5441 5437 5432 5429 5424 5419 5414 5412 5408 5404 5403 5398 5395 5397 5395 5392 5389 5387 5387 5389 5391 5389 5389 5392 5394 5396
5502 5501 5497 5487 5479 5480 5480 5476 5471 5467 5463 5458 5453 5448 5442 5438 5433 5429 5426 5420 5415 5407 5402 5396 5391 5386 5383 5379 5373 5370 5365 5365 5363 5356 5354 5353 5352 5351 5351 5353 5355 5357 5359
5487 5482 5477 5473 5470 5468 5465 5461 5458 5454 5450 5445 5438 5434 5429 5424 5420 5417 5412 5407 5398 5391 5383 5376 5370 5363 5358 5351 5344 5336 5329 5330 5332 5321 5310 5323 5309 5314 5313 5314 5315 5317 5321
5472 5468 5465 5460 5455 5453 5450 5447 5445 5443 5436 5431 5424 5419 5414 5412 5406 5401 5396 5394 5384 5374 5365 5357 5348 5338 5331 5321 5314 5306 5296 5293 5292 5288 5277 5296 5284 5287 5287 5289 5288 5290 5295
5460 5455 5451 5447 5443 5441 5438 5435 5432 5429 5424 5416 5410 5404 5398 5394 5389 5387 5380 5375 5367 5356 5346 5332 5320 5313 5302 5293 5280 5275 5274 5268 5269 5266 5258 5267 5265 5268 5269 5272 5272 5275 5279
5448 5443 5439 5436 5431 5427 5424 5421 5422 5415 5408 5401 5396 5390 5386 5379 5373 5372 5363 5355 5349 5339 5326 5312 5298 5287 5280 5271 5261 5253 5249 5244 5251 5251 5249 5246 5252 5252 5259 5263 5260 5260 5262
5436 5431 5426 5422 5418 5413 5411 5408 5405 5398 5392 5386 5383 5376 5370 5364 5358 5349 5341 5332 5327 5320 5306 5294 5280 5267 5259 5253 5246 5237 5233 5231 5231 5238 5234 5232 5236 5232 5252 5253 5250 5248 5248